Location: Newark
(16.3678°N, 77.8722°E)
Time: 20:38:05
(UTC+00:00)

S-56A Canister/Altair - Pass Details

Date: 13 December 2019
Orbit: 634 x 2498 km, 38.9° (Epoch: 26 January)

Event Time Altitude Azimuth Distance (km) Brightness Sun altitude
Rises 08:36:39 0° 308° (NW) 6,171 12.1 41.6°
Reaches altitude 10° 08:41:24 10° 316° (NW) 5,143 11.8 41.0°
Maximum altitude 08:54:31 36° 18° (NNE) 3,110 10.5 39.0°
Drops below altitude 10° 09:04:55 10° 82° (E) 4,114 11.0 37.3°
Sets 09:08:11 0° 91° (E) 4,850 11.3 36.8°
